owner,sensor,date,latitude,longitude,vertical_datum,direction_of_sea_water_velocity,sea_water_speed,upward_sea_water_velocity,qcFlag 
TABS,ioos:station:TABS:A:1,1996-08-01T00:00:00Z,29.5325,-93.8116,2.0,197.0920744,4.048826991,-99999.0,'11133222,11111222,99999999' 
TABS,ioos:station:TABS:A:1,1996-08-01T00:30:00Z,29.5325,-93.8116,2.0,179.9997895,4.47,-99999.0,'11133222,11111222,99999999' 
TABS,ioos:station:TABS:A:1,1996-08-01T01:00:00Z,29.5325,-93.8116,2.0,159.4788785,3.822564584,-99999.0,'11133222,11111222,99999999' 
TABS,ioos:station:TABS:A:1,1996-08-01T01:30:00Z,29.5325,-93.8116,2.0,165.873136,3.072930198,-99999.0,'11133222,11111222,99999999' 
TABS,ioos:station:TABS:A:1,1996-08-01T02:00:00Z,29.5325,-93.8116,2.0,146.4085863,1.60863296,-99999.0,'11133222,11111222,99999999' 
TABS,ioos:station:TABS:A:1,1996-08-01T02:30:00Z,29.5325,-93.8116,2.0,90.0,1.79,-99999.0,'11133222,11111222,99999999' 
TABS,ioos:station:TABS:A:1,1996-08-01T03:00:00Z,29.5325,-93.8116,2.0,52.47433902,2.446160256,-99999.0,'11133222,11111222,99999999' 
TABS,ioos:station:TABS:A:1,1996-08-01T03:30:00Z,29.5325,-93.8116,2.0,53.82334362,4.794350842,-99999.0,'11133222,11111222,99999999' 
TABS,ioos:station:TABS:A:1,1996-08-01T04:00:00Z,29.5325,-93.8116,2.0,56.33277472,6.98090252,-99999.0,'11133222,11111222,99999999' 
TABS,ioos:station:TABS:A:1,1996-08-01T04:30:00Z,29.5325,-93.8116,2.0,59.38383878,8.482476054,-99999.0,'11133222,11111222,99999999' 
TABS,ioos:station:TABS:A:1,1996-08-01T05:00:00Z,29.5325,-93.8116,2.0,54.08480666,8.643199639,-99999.0,'11133222,11111222,99999999' 
TABS,ioos:station:TABS:A:1,1996-08-01T05:30:00Z,29.5325,-93.8116,2.0,45.63434846,9.581883948,-99999.0,'11133222,11111222,99999999' 
TABS,ioos:station:TABS:A:1,1996-08-01T06:00:00Z,29.5325,-93.8116,2.0,43.86941692,10.75011628,-99999.0,'11111222,11111222,99999999' 
TABS,ioos:station:TABS:A:1,1996-08-01T06:30:00Z,29.5325,-93.8116,2.0,47.9987255,12.03021612,-99999.0,'11111222,11111222,99999999' 
TABS,ioos:station:TABS:A:1,1996-08-01T07:00:00Z,29.5325,-93.8116,2.0,60.92992393,10.74339332,-99999.0,'11111222,11111222,99999999' 
TABS,ioos:station:TABS:A:1,1996-08-01T07:30:00Z,29.5325,-93.8116,2.0,70.21478777,7.917379617,-99999.0,'11133222,11111222,99999999' 
TABS,ioos:station:TABS:A:1,1996-08-01T08:00:00Z,29.5325,-93.8116,2.0,67.98727141,7.550423829,-99999.0,'11133222,11111222,99999999' 
TABS,ioos:station:TABS:A:1,1996-08-01T08:30:00Z,29.5325,-93.8116,2.0,75.49526064,4.152348733,-99999.0,'11133222,11111222,99999999' 
TABS,ioos:station:TABS:A:1,1996-08-01T09:00:00Z,29.5325,-93.8116,2.0,84.25135003,4.492593906,-99999.0,'11133222,11111222,99999999' 
TABS,ioos:station:TABS:A:1,1996-08-01T09:30:00Z,29.5325,-93.8116,2.0,91.64597365,5.222154728,-99999.0,'11133222,11111222,99999999' 
TABS,ioos:station:TABS:A:1,1996-08-01T10:00:00Z,29.5325,-93.8116,2.0,107.012507,5.605283222,-99999.0,'11133222,11111222,99999999' 
TABS,ioos:station:TABS:A:1,1996-08-01T10:30:00Z,29.5325,-93.8116,2.0,118.3124498,6.599469676,-99999.0,'11133222,11111222,99999999' 
TABS,ioos:station:TABS:A:1,1996-08-01T11:00:00Z,29.5325,-93.8116,2.0,119.7211652,6.01072375,-99999.0,'11133222,11111222,99999999' 
TABS,ioos:station:TABS:A:1,1996-08-01T11:30:00Z,29.5325,-93.8116,2.0,131.9380412,7.810537754,-99999.0,'11133222,11111222,99999999' 
TABS,ioos:station:TABS:A:1,1996-08-01T12:00:00Z,29.5325,-93.8116,2.0,136.5592822,7.795203654,-99999.0,'11133222,11111222,99999999' 
TABS,ioos:station:TABS:A:1,1996-08-01T12:30:00Z,29.5325,-93.8116,2.0,132.8647577,8.540708402,-99999.0,'11133222,11111222,99999999' 
TABS,ioos:station:TABS:A:1,1996-08-01T13:00:00Z,29.5325,-93.8116,2.0,131.2587747,8.12783489,-99999.0,'11133222,11111222,99999999' 
TABS,ioos:station:TABS:A:1,1996-08-01T13:30:00Z,29.5325,-93.8116,2.0,128.6597179,9.540655114,-99999.0,'11133222,11111222,99999999' 
TABS,ioos:station:TABS:A:1,1996-08-01T14:00:00Z,29.5325,-93.8116,2.0,130.4119274,9.193562965,-99999.0,'11133222,11111222,99999999' 
TABS,ioos:station:TABS:A:1,1996-08-01T14:30:00Z,29.5325,-93.8116,2.0,136.9004104,9.381396485,-99999.0,'11133222,11111222,99999999' 
TABS,ioos:station:TABS:A:1,1996-08-01T15:00:00Z,29.5325,-93.8116,2.0,138.345123,8.96725153,-99999.0,'11133222,11111222,99999999' 
TABS,ioos:station:TABS:A:1,1996-08-01T15:30:00Z,29.5325,-93.8116,2.0,130.5152992,9.405030569,-99999.0,'11133222,11111222,99999999' 
TABS,ioos:station:TABS:A:1,1996-08-01T16:00:00Z,29.5325,-93.8116,2.0,136.4062157,8.643448386,-99999.0,'11133222,11111222,99999999' 
TABS,ioos:station:TABS:A:1,1996-08-01T16:30:00Z,29.5325,-93.8116,2.0,135.7119001,8.535437892,-99999.0,'11133222,11111222,99999999' 
TABS,ioos:station:TABS:A:1,1996-08-01T17:00:00Z,29.5325,-93.8116,2.0,143.8860351,6.820593816,-99999.0,'11133222,11111222,99999999' 
TABS,ioos:station:TABS:A:1,1996-08-01T17:30:00Z,29.5325,-93.8116,2.0,131.5506316,5.171247432,-99999.0,'11133222,11111222,99999999' 
TABS,ioos:station:TABS:A:1,1996-08-01T18:00:00Z,29.5325,-93.8116,2.0,124.0793958,6.121258041,-99999.0,'11133222,11111222,99999999' 
TABS,ioos:station:TABS:A:1,1996-08-01T18:30:00Z,29.5325,-93.8116,2.0,117.1248635,6.865056446,-99999.0,'11133222,11111222,99999999' 
TABS,ioos:station:TABS:A:1,1996-08-01T19:00:00Z,29.5325,-93.8116,2.0,110.3874102,5.56884189,-99999.0,'11133222,11111222,99999999' 
TABS,ioos:station:TABS:A:1,1996-08-01T19:30:00Z,29.5325,-93.8116,2.0,107.4414392,5.471562848,-99999.0,'11133222,11111222,99999999' 
TABS,ioos:station:TABS:A:1,1996-08-01T20:00:00Z,29.5325,-93.8116,2.0,102.8421834,5.353923795,-99999.0,'11133222,11111222,99999999' 
TABS,ioos:station:TABS:A:1,1996-08-01T20:30:00Z,29.5325,-93.8116,2.0,102.8421834,5.353923795,-99999.0,'11133222,11111222,99999999' 
TABS,ioos:station:TABS:A:1,1996-08-01T21:00:00Z,29.5325,-93.8116,2.0,105.1318289,5.707906797,-99999.0,'11133222,11111222,99999999' 
TABS,ioos:station:TABS:A:1,1996-08-01T21:30:00Z,29.5325,-93.8116,2.0,115.0589229,4.93447059,-99999.0,'11133222,11111222,99999999' 
TABS,ioos:station:TABS:A:1,1996-08-01T22:00:00Z,29.5325,-93.8116,2.0,117.4698796,4.530838774,-99999.0,'11133222,11111222,99999999' 
TABS,ioos:station:TABS:A:1,1996-08-01T22:30:00Z,29.5325,-93.8116,2.0,113.7907182,4.065464303,-99999.0,'11133222,11111222,99999999' 
TABS,ioos:station:TABS:A:1,1996-08-01T23:00:00Z,29.5325,-93.8116,2.0,109.1335985,3.630564694,-99999.0,'11133222,11111222,99999999' 
TABS,ioos:station:TABS:A:1,1996-08-01T23:30:00Z,29.5325,-93.8116,2.0,108.4349057,4.237452065,-99999.0,'11133222,11111222,99999999' 
TABS,ioos:station:TABS:A:1,1996-08-02T00:00:00Z,29.5325,-93.8116,2.0,106.4897635,4.192433661,-99999.0,'11133222,11111222,99999999' 
TABS,ioos:station:TABS:A:1,1996-08-02T00:30:00Z,29.5325,-93.8116,2.0,102.4834974,4.117341375,-99999.0,'11133222,11111222,99999999' 
TABS,ioos:station:TABS:A:1,1996-08-02T01:00:00Z,29.5325,-93.8116,2.0,103.4749299,3.218602181,-99999.0,'11133222,11111222,99999999' 
TABS,ioos:station:TABS:A:1,1996-08-02T01:30:00Z,29.5325,-93.8116,2.0,90.0,3.28,-99999.0,'11133222,11111222,99999999' 
TABS,ioos:station:TABS:A:1,1996-08-02T02:00:00Z,29.5325,-93.8116,2.0,117.7668193,3.198280788,-99999.0,'11133222,11111222,99999999' 
TABS,ioos:station:TABS:A:1,1996-08-02T02:30:00Z,29.5325,-93.8116,2.0,90.0,2.83,-99999.0,'11133222,11111222,99999999' 
TABS,ioos:station:TABS:A:1,1996-08-02T03:00:00Z,29.5325,-93.8116,2.0,84.25135003,2.995062604,-99999.0,'11133222,11111222,99999999' 
TABS,ioos:station:TABS:A:1,1996-08-02T03:30:00Z,29.5325,-93.8116,2.0,81.51107597,4.064529493,-99999.0,'11133222,11111222,99999999' 
TABS,ioos:station:TABS:A:1,1996-08-02T04:00:00Z,29.5325,-93.8116,2.0,75.19529996,5.244091914,-99999.0,'11133222,11111222,99999999' 
TABS,ioos:station:TABS:A:1,1996-08-02T04:30:00Z,29.5325,-93.8116,2.0,70.44379244,7.110161742,-99999.0,'11133222,11111222,99999999' 
TABS,ioos:station:TABS:A:1,1996-08-02T05:00:00Z,29.5325,-93.8116,2.0,70.92432898,8.200298775,-99999.0,'11133222,11111222,99999999' 
TABS,ioos:station:TABS:A:1,1996-08-02T05:30:00Z,29.5325,-93.8116,2.0,70.65891184,8.997805288,-99999.0,'11133222,11111222,99999999' 
TABS,ioos:station:TABS:A:1,1996-08-02T06:00:00Z,29.5325,-93.8116,2.0,72.90562137,10.13787453,-99999.0,'11111222,11111222,99999999' 
TABS,ioos:station:TABS:A:1,1996-08-02T06:30:00Z,29.5325,-93.8116,2.0,68.06019871,10.7592193,-99999.0,'11111222,11111222,99999999' 
TABS,ioos:station:TABS:A:1,1996-08-02T07:00:00Z,29.5325,-93.8116,2.0,71.29942859,10.2300782,-99999.0,'11111222,11111222,99999999' 
TABS,ioos:station:TABS:A:1,1996-08-02T07:30:00Z,29.5325,-93.8116,2.0,67.83991782,9.491074755,-99999.0,'11133222,11111222,99999999' 
TABS,ioos:station:TABS:A:1,1996-08-02T08:00:00Z,29.5325,-93.8116,2.0,62.51301855,8.059832504,-99999.0,'11133222,11111222,99999999' 
TABS,ioos:station:TABS:A:1,1996-08-02T08:30:00Z,29.5325,-93.8116,2.0,59.46205816,7.616462433,-99999.0,'11133222,11111222,99999999' 
TABS,ioos:station:TABS:A:1,1996-08-02T09:00:00Z,29.5325,-93.8116,2.0,74.84069696,13.11642101,-99999.0,'11111222,11111222,99999999' 
TABS,ioos:station:TABS:A:1,1996-08-02T09:30:00Z,29.5325,-93.8116,2.0,80.29456908,12.39743925,-99999.0,'11111222,11111222,99999999' 
TABS,ioos:station:TABS:A:1,1996-08-02T10:00:00Z,29.5325,-93.8116,2.0,81.56444903,12.20200803,-99999.0,'11111222,11111222,99999999' 
TABS,ioos:station:TABS:A:1,1996-08-02T10:30:00Z,29.5325,-93.8116,2.0,87.22308281,12.38454279,-99999.0,'11111222,11111222,99999999' 
TABS,ioos:station:TABS:A:1,1996-08-02T11:00:00Z,29.5325,-93.8116,2.0,86.44436154,12.09327913,-99999.0,'11111222,11111222,99999999' 
TABS,ioos:station:TABS:A:1,1996-08-02T11:30:00Z,29.5325,-93.8116,2.0,83.51596086,13.19440033,-99999.0,'11111222,11111222,99999999' 
TABS,ioos:station:TABS:A:1,1996-08-02T12:00:00Z,29.5325,-93.8116,2.0,85.75457675,14.04854797,-99999.0,'11111222,11111222,99999999' 
TABS,ioos:station:TABS:A:1,1996-08-02T12:30:00Z,29.5325,-93.8116,2.0,90.0,13.56,-99999.0,'11111222,11111222,99999999' 
TABS,ioos:station:TABS:A:1,1996-08-02T13:00:00Z,29.5325,-93.8116,2.0,91.55844508,16.54612039,-99999.0,'11111222,11111222,99999999' 
TABS,ioos:station:TABS:A:1,1996-08-02T13:30:00Z,29.5325,-93.8116,2.0,90.54914273,15.65071883,-99999.0,'11111222,11111222,99999999' 
TABS,ioos:station:TABS:A:1,1996-08-02T14:00:00Z,29.5325,-93.8116,2.0,91.66295485,15.50653088,-99999.0,'11111222,11111222,99999999' 
TABS,ioos:station:TABS:A:1,1996-08-02T14:30:00Z,29.5325,-93.8116,2.0,90.0,18.63,-99999.0,'11111222,11111222,99999999' 
TABS,ioos:station:TABS:A:1,1996-08-02T15:00:00Z,29.5325,-93.8116,2.0,90.90127299,19.07235958,-99999.0,'11111222,11111222,99999999' 
TABS,ioos:station:TABS:A:1,1996-08-02T15:30:00Z,29.5325,-93.8116,2.0,90.48065689,17.88062918,-99999.0,'11111222,11111222,99999999' 
TABS,ioos:station:TABS:A:1,1996-08-02T16:00:00Z,29.5325,-93.8116,2.0,86.82863049,18.79878985,-99999.0,'11111222,11111222,99999999' 
TABS,ioos:station:TABS:A:1,1996-08-02T16:30:00Z,29.5325,-93.8116,2.0,84.51179042,18.71579547,-99999.0,'11111222,11111222,99999999' 
TABS,ioos:station:TABS:A:1,1996-08-02T17:00:00Z,29.5325,-93.8116,2.0,79.16658083,17.45101716,-99999.0,'11111222,11111222,99999999' 
TABS,ioos:station:TABS:A:1,1996-08-02T17:30:00Z,29.5325,-93.8116,2.0,77.79363356,20.43191866,-99999.0,'11111222,11111222,99999999' 
TABS,ioos:station:TABS:A:1,1996-08-02T18:00:00Z,29.5325,-93.8116,2.0,78.70147119,19.75281752,-99999.0,'11111222,11111222,99999999' 
TABS,ioos:station:TABS:A:1,1996-08-02T18:30:00Z,29.5325,-93.8116,2.0,73.32794057,18.19487016,-99999.0,'11111222,11111222,99999999' 
TABS,ioos:station:TABS:A:1,1996-08-02T19:00:00Z,29.5325,-93.8116,2.0,65.57073728,16.2003858,-99999.0,'11111222,11111222,99999999' 
TABS,ioos:station:TABS:A:1,1996-08-02T19:30:00Z,29.5325,-93.8116,2.0,63.44899572,18.32234155,-99999.0,'11111222,11111222,99999999' 
TABS,ioos:station:TABS:A:1,1996-08-02T20:00:00Z,29.5325,-93.8116,2.0,59.69529871,15.35871414,-99999.0,'11111222,11111222,99999999' 
TABS,ioos:station:TABS:A:1,1996-08-02T20:30:00Z,29.5325,-93.8116,2.0,56.79471579,14.42549479,-99999.0,'11111222,11111222,99999999' 
TABS,ioos:station:TABS:A:1,1996-08-02T21:00:00Z,29.5325,-93.8116,2.0,58.52659337,14.84378995,-99999.0,'11111222,11111222,99999999' 
TABS,ioos:station:TABS:A:1,1996-08-02T21:30:00Z,29.5325,-93.8116,2.0,67.95446302,13.50760156,-99999.0,'11111222,11111222,99999999' 
TABS,ioos:station:TABS:A:1,1996-08-02T22:00:00Z,29.5325,-93.8116,2.0,69.20431809,12.59022637,-99999.0,'11111222,11111222,99999999' 
TABS,ioos:station:TABS:A:1,1996-08-02T22:30:00Z,29.5325,-93.8116,2.0,63.72053505,13.46129637,-99999.0,'11111222,11111222,99999999' 
TABS,ioos:station:TABS:A:1,1996-08-02T23:00:00Z,29.5325,-93.8116,2.0,71.35555002,12.10527984,-99999.0,'11111222,11111222,99999999' 
TABS,ioos:station:TABS:A:1,1996-08-02T23:30:00Z,29.5325,-93.8116,2.0,76.20294689,8.13471573,-99999.0,'11133222,11111222,99999999' 
TABS,ioos:station:TABS:A:1,1996-08-03T00:00:00Z,29.5325,-93.8116,2.0,75.68032527,7.843698107,-99999.0,'11133222,11111222,99999999' 
TABS,ioos:station:TABS:A:1,1996-08-03T00:30:00Z,29.5325,-93.8116,2.0,71.83578036,10.04034362,-99999.0,'11111222,11111222,99999999' 
TABS,ioos:station:TABS:A:1,1996-08-03T01:00:00Z,29.5325,-93.8116,2.0,73.22352494,11.36366138,-99999.0,'11111222,11111222,99999999' 
TABS,ioos:station:TABS:A:1,1996-08-03T01:30:00Z,29.5325,-93.8116,2.0,81.96658312,11.73516084,-99999.0,'11111222,11111222,99999999' 
TABS,ioos:station:TABS:A:1,1996-08-03T02:00:00Z,29.5325,-93.8116,2.0,76.96471489,10.55190978,-99999.0,'11111222,11111222,99999999' 
TABS,ioos:station:TABS:A:1,1996-08-03T02:30:00Z,29.5325,-93.8116,2.0,83.87407209,9.745650312,-99999.0,'11133222,11111222,99999999' 
TABS,ioos:station:TABS:A:1,1996-08-03T03:00:00Z,29.5325,-93.8116,2.0,82.23745318,9.920912256,-99999.0,'11133222,11111222,99999999' 
TABS,ioos:station:TABS:A:1,1996-08-03T03:30:00Z,29.5325,-93.8116,2.0,83.67154478,10.79578622,-99999.0,'11111222,11111222,99999999' 
TABS,ioos:station:TABS:A:1,1996-08-03T04:00:00Z,29.5325,-93.8116,2.0,79.77285155,9.236758089,-99999.0,'11133222,11111222,99999999' 
TABS,ioos:station:TABS:A:1,1996-08-03T04:30:00Z,29.5325,-93.8116,2.0,67.62560702,10.95471588,-99999.0,'11111222,11111222,99999999' 
TABS,ioos:station:TABS:A:1,1996-08-03T05:00:00Z,29.5325,-93.8116,2.0,79.41131508,11.37367575,-99999.0,'11111222,11111222,99999999' 
TABS,ioos:station:TABS:A:1,1996-08-03T05:30:00Z,29.5325,-93.8116,2.0,75.32785451,9.396408889,-99999.0,'11133222,11111222,99999999' 
TABS,ioos:station:TABS:A:1,1996-08-03T06:00:00Z,29.5325,-93.8116,2.0,60.9499978,12.27413948,-99999.0,'11111222,11111222,99999999' 
TABS,ioos:station:TABS:A:1,1996-08-03T06:30:00Z,29.5325,-93.8116,2.0,63.73550983,12.79048474,-99999.0,'11111222,11111222,99999999' 
TABS,ioos:station:TABS:A:1,1996-08-03T07:00:00Z,29.5325,-93.8116,2.0,59.74031364,12.42258025,-99999.0,'11111222,11111222,99999999' 
TABS,ioos:station:TABS:A:1,1996-08-03T07:30:00Z,29.5325,-93.8116,2.0,57.01655369,10.12127462,-99999.0,'11111222,11111222,99999999' 
TABS,ioos:station:TABS:A:1,1996-08-03T08:00:00Z,29.5325,-93.8116,2.0,65.31392152,12.13943162,-99999.0,'11111222,11111222,99999999' 
TABS,ioos:station:TABS:A:1,1996-08-03T08:30:00Z,29.5325,-93.8116,2.0,64.62026899,9.728977336,-99999.0,'11133222,11111222,99999999' 
TABS,ioos:station:TABS:A:1,1996-08-03T09:00:00Z,29.5325,-93.8116,2.0,71.54907649,11.31146763,-99999.0,'11111222,11111222,99999999' 
TABS,ioos:station:TABS:A:1,1996-08-03T09:30:00Z,29.5325,-93.8116,2.0,67.49328991,9.352325914,-99999.0,'11133222,11111222,99999999' 
TABS,ioos:station:TABS:A:1,1996-08-03T10:00:00Z,29.5325,-93.8116,2.0,65.49511715,9.330434074,-99999.0,'11133222,11111222,99999999' 
TABS,ioos:station:TABS:A:1,1996-08-03T10:30:00Z,29.5325,-93.8116,2.0,71.27227412,9.281406143,-99999.0,'11133222,11111222,99999999' 
TABS,ioos:station:TABS:A:1,1996-08-03T11:00:00Z,29.5325,-93.8116,2.0,63.04525066,9.861287948,-99999.0,'11133222,11111222,99999999' 
TABS,ioos:station:TABS:A:1,1996-08-03T11:30:00Z,29.5325,-93.8116,2.0,67.83991782,9.491074755,-99999.0,'11133222,11111222,99999999' 
TABS,ioos:station:TABS:A:1,1996-08-03T12:00:00Z,29.5325,-93.8116,2.0,77.46368566,8.246611425,-99999.0,'11133222,11111222,99999999' 
TABS,ioos:station:TABS:A:1,1996-08-03T12:30:00Z,29.5325,-93.8116,2.0,86.96596745,8.501917431,-99999.0,'11133222,11111222,99999999' 
TABS,ioos:station:TABS:A:1,1996-08-03T13:00:00Z,29.5325,-93.8116,2.0,77.55406859,9.001538757,-99999.0,'11133222,11111222,99999999' 
TABS,ioos:station:TABS:A:1,1996-08-03T13:30:00Z,29.5325,-93.8116,2.0,86.4012403,9.558849303,-99999.0,'11133222,11111222,99999999' 
TABS,ioos:station:TABS:A:1,1996-08-03T14:00:00Z,29.5325,-93.8116,2.0,89.06995758,9.241217452,-99999.0,'11133222,11111222,99999999' 
TABS,ioos:station:TABS:A:1,1996-08-03T14:30:00Z,29.5325,-93.8116,2.0,90.0,9.24,-99999.0,'11133222,11111222,99999999' 
TABS,ioos:station:TABS:A:1,1996-08-03T15:00:00Z,29.5325,-93.8116,2.0,82.97872619,10.96220781,-99999.0,'11111222,11111222,99999999' 
TABS,ioos:station:TABS:A:1,1996-08-03T15:30:00Z,29.5325,-93.8116,2.0,82.44785381,12.47824106,-99999.0,'11111222,11111222,99999999' 
TABS,ioos:station:TABS:A:1,1996-08-03T16:00:00Z,29.5325,-93.8116,2.0,85.0519173,10.31845434,-99999.0,'11111222,11111222,99999999' 
TABS,ioos:station:TABS:A:1,1996-08-03T16:30:00Z,29.5325,-93.8116,2.0,77.19387493,13.44442264,-99999.0,'11111222,11111222,99999999' 
TABS,ioos:station:TABS:A:1,1996-08-03T17:00:00Z,29.5325,-93.8116,2.0,76.51980559,11.49672997,-99999.0,'11111222,11111222,99999999' 
TABS,ioos:station:TABS:A:1,1996-08-03T17:30:00Z,29.5325,-93.8116,2.0,74.2371525,12.07405483,-99999.0,'11111222,11111222,99999999' 
TABS,ioos:station:TABS:A:1,1996-08-03T18:00:00Z,29.5325,-93.8116,2.0,73.351219,11.97187538,-99999.0,'11111222,11111222,99999999' 
TABS,ioos:station:TABS:A:1,1996-08-03T18:30:00Z,29.5325,-93.8116,2.0,74.07138471,14.1014361,-99999.0,'11111222,11111222,99999999' 
TABS,ioos:station:TABS:A:1,1996-08-03T19:00:00Z,29.5325,-93.8116,2.0,73.90288599,15.0396609,-99999.0,'11111222,11111222,99999999' 
TABS,ioos:station:TABS:A:1,1996-08-03T19:30:00Z,29.5325,-93.8116,2.0,68.10503301,14.77579778,-99999.0,'11111222,11111222,99999999' 
TABS,ioos:station:TABS:A:1,1996-08-03T20:00:00Z,29.5325,-93.8116,2.0,66.57266185,13.48133895,-99999.0,'11111222,11111222,99999999' 
TABS,ioos:station:TABS:A:1,1996-08-03T20:30:00Z,29.5325,-93.8116,2.0,70.10649257,10.93237394,-99999.0,'11111222,11111222,99999999' 
TABS,ioos:station:TABS:A:1,1996-08-03T21:00:00Z,29.5325,-93.8116,2.0,70.22456721,10.13787453,-99999.0,'11111222,11111222,99999999' 
TABS,ioos:station:TABS:A:1,1996-08-03T21:30:00Z,29.5325,-93.8116,2.0,68.38645435,8.497464328,-99999.0,'11133222,11111222,99999999' 
TABS,ioos:station:TABS:A:1,1996-08-03T22:00:00Z,29.5325,-93.8116,2.0,70.79942235,10.88553168,-99999.0,'11111222,11111222,99999999' 
TABS,ioos:station:TABS:A:1,1996-08-03T22:30:00Z,29.5325,-93.8116,2.0,72.54285388,10.93358587,-99999.0,'11111222,11111222,99999999' 
TABS,ioos:station:TABS:A:1,1996-08-03T23:00:00Z,29.5325,-93.8116,2.0,80.52904106,10.87828111,-99999.0,'11111222,11111222,99999999' 
TABS,ioos:station:TABS:A:1,1996-08-03T23:30:00Z,29.5325,-93.8116,2.0,82.00449221,9.63364936,-99999.0,'11133222,11111222,99999999' 
TABS,ioos:station:TABS:A:1,1996-08-04T00:00:00Z,29.5325,-93.8116,2.0,77.75654258,9.148070835,-99999.0,'11133222,11111222,99999999' 
TABS,ioos:station:TABS:A:1,1996-08-04T00:30:00Z,29.5325,-93.8116,2.0,78.09436506,8.676646818,-99999.0,'11133222,11111222,99999999' 
TABS,ioos:station:TABS:A:1,1996-08-04T01:00:00Z,29.5325,-93.8116,2.0,87.59739615,7.156290939,-99999.0,'11133222,11111222,99999999' 
TABS,ioos:station:TABS:A:1,1996-08-04T01:30:00Z,29.5325,-93.8116,2.0,90.0,6.56,-99999.0,'11133222,11111222,99999999' 
TABS,ioos:station:TABS:A:1,1996-08-04T02:00:00Z,29.5325,-93.8116,2.0,88.59367907,6.111840967,-99999.0,'11133222,11111222,99999999' 
TABS,ioos:station:TABS:A:1,1996-08-04T02:30:00Z,29.5325,-93.8116,2.0,86.96596745,5.667944954,-99999.0,'11133222,11111222,99999999' 
TABS,ioos:station:TABS:A:1,1996-08-04T03:00:00Z,29.5325,-93.8116,2.0,93.28923499,5.228613583,-99999.0,'11133222,11111222,99999999' 
TABS,ioos:station:TABS:A:1,1996-08-04T03:30:00Z,29.5325,-93.8116,2.0,95.07212101,5.089931237,-99999.0,'11133222,11111222,99999999' 
TABS,ioos:station:TABS:A:1,1996-08-04T04:00:00Z,29.5325,-93.8116,2.0,95.07212101,5.089931237,-99999.0,'11133222,11111222,99999999' 
TABS,ioos:station:TABS:A:1,1996-08-04T04:30:00Z,29.5325,-93.8116,2.0,90.0,4.47,-99999.0,'11133222,11111222,99999999' 
TABS,ioos:station:TABS:A:1,1996-08-04T05:00:00Z,29.5325,-93.8116,2.0,86.28471958,4.629730014,-99999.0,'11133222,11111222,99999999' 
TABS,ioos:station:TABS:A:1,1996-08-04T05:30:00Z,29.5325,-93.8116,2.0,74.46489949,5.563245456,-99999.0,'11133222,11111222,99999999' 
TABS,ioos:station:TABS:A:1,1996-08-04T06:00:00Z,29.5325,-93.8116,2.0,75.96378935,5.524961538,-99999.0,'11133222,11111222,99999999' 
TABS,ioos:station:TABS:A:1,1996-08-04T06:30:00Z,29.5325,-93.8116,2.0,75.64875049,6.61647187,-99999.0,'11133222,11111222,99999999' 
TABS,ioos:station:TABS:A:1,1996-08-04T07:00:00Z,29.5325,-93.8116,2.0,72.32964856,7.346625076,-99999.0,'11133222,11111222,99999999' 
TABS,ioos:station:TABS:A:1,1996-08-04T07:30:00Z,29.5325,-93.8116,2.0,68.71787414,6.557171646,-99999.0,'11133222,11111222,99999999' 
TABS,ioos:station:TABS:A:1,1996-08-04T08:00:00Z,29.5325,-93.8116,2.0,71.53303181,5.650991064,-99999.0,'11133222,11111222,99999999' 
TABS,ioos:station:TABS:A:1,1996-08-04T08:30:00Z,29.5325,-93.8116,2.0,68.6979776,5.753060055,-99999.0,'11133222,11111222,99999999' 
TABS,ioos:station:TABS:A:1,1996-08-04T09:00:00Z,29.5325,-93.8116,2.0,60.83045099,5.806358583,-99999.0,'11133222,11111222,99999999' 
TABS,ioos:station:TABS:A:1,1996-08-04T09:30:00Z,29.5325,-93.8116,2.0,74.06913927,5.428489661,-99999.0,'11133222,11111222,99999999' 
TABS,ioos:station:TABS:A:1,1996-08-04T10:00:00Z,29.5325,-93.8116,2.0,74.06913927,5.428489661,-99999.0,'11133222,11111222,99999999' 
TABS,ioos:station:TABS:A:1,1996-08-04T10:30:00Z,29.5325,-93.8116,2.0,61.14855902,4.932220595,-99999.0,'11133222,11111222,99999999' 
TABS,ioos:station:TABS:A:1,1996-08-04T11:00:00Z,29.5325,-93.8116,2.0,63.38007746,4.664439945,-99999.0,'11133222,11111222,99999999' 
TABS,ioos:station:TABS:A:1,1996-08-04T11:30:00Z,29.5325,-93.8116,2.0,65.65896698,5.070749452,-99999.0,'11133222,11111222,99999999' 
TABS,ioos:station:TABS:A:1,1996-08-04T12:00:00Z,29.5325,-93.8116,2.0,73.62273542,5.284411036,-99999.0,'11133222,11111222,99999999' 
TABS,ioos:station:TABS:A:1,1996-08-04T12:30:00Z,29.5325,-93.8116,2.0,75.55599805,4.770796579,-99999.0,'11133222,11111222,99999999' 
TABS,ioos:station:TABS:A:1,1996-08-04T13:00:00Z,29.5325,-93.8116,2.0,74.07279015,4.336473221,-99999.0,'11133222,11111222,99999999' 
TABS,ioos:station:TABS:A:1,1996-08-04T13:30:00Z,29.5325,-93.8116,2.0,83.10258857,3.747118893,-99999.0,'11133222,11111222,99999999' 
TABS,ioos:station:TABS:A:1,1996-08-04T14:00:00Z,29.5325,-93.8116,2.0,73.15133754,5.140671162,-99999.0,'11133222,11111222,99999999' 
TABS,ioos:station:TABS:A:1,1996-08-04T14:30:00Z,29.5325,-93.8116,2.0,71.96979948,6.267790679,-99999.0,'11133222,11111222,99999999' 
TABS,ioos:station:TABS:A:1,1996-08-04T15:00:00Z,29.5325,-93.8116,2.0,72.384759,6.410592796,-99999.0,'11133222,11111222,99999999' 
TABS,ioos:station:TABS:A:1,1996-08-04T15:30:00Z,29.5325,-93.8116,2.0,76.29522981,6.289053983,-99999.0,'11133222,11111222,99999999' 
TABS,ioos:station:TABS:A:1,1996-08-04T16:00:00Z,29.5325,-93.8116,2.0,74.0425537,6.510890876,-99999.0,'11133222,11111222,99999999' 
TABS,ioos:station:TABS:A:1,1996-08-04T16:30:00Z,29.5325,-93.8116,2.0,73.52541955,6.840847901,-99999.0,'11133222,11111222,99999999' 
TABS,ioos:station:TABS:A:1,1996-08-04T17:00:00Z,29.5325,-93.8116,2.0,72.45025227,5.936303564,-99999.0,'11133222,11111222,99999999' 
TABS,ioos:station:TABS:A:1,1996-08-04T17:30:00Z,29.5325,-93.8116,2.0,62.84637776,6.529663085,-99999.0,'11133222,11111222,99999999' 
TABS,ioos:station:TABS:A:1,1996-08-04T18:00:00Z,29.5325,-93.8116,2.0,59.00804965,6.952553488,-99999.0,'11133222,11111222,99999999' 